Time,TemperatureF,DewpointF,PressureIn,WindDirection,WindDirectionDegrees,WindSpeedMPH,WindSpeedGustMPH,Humidity,HourlyPrecipIn,Conditions,Clouds,dailyrainin,SoftwareType,DateUTC
2013-08-07 00:02:00,62.0,56.0,29.80,West,269,0.0,1.0,81,0.00,,,0.04,,2013-08-07 05:02:00,
2013-08-07 00:11:00,62.0,56.0,29.81,ENE,68,0.0,2.0,81,0.00,,,0.04,,2013-08-07 05:11:00,
2013-08-07 00:22:00,62.0,56.0,29.81,SW,231,1.0,1.0,81,0.00,,,0.04,,2013-08-07 05:22:00,
2013-08-07 00:32:00,61.0,55.0,29.82,South,191,0.0,2.0,81,0.00,,,0.04,,2013-08-07 05:32:00,
2013-08-07 00:43:00,61.0,55.0,29.82,WSW,248,0.0,1.0,81,0.00,,,0.04,,2013-08-07 05:43:00,
2013-08-07 00:52:00,61.0,55.0,29.82,West,267,1.0,1.0,82,0.00,,,0.04,,2013-08-07 05:52:00,
2013-08-07 01:02:00,61.0,55.0,29.82,West,274,1.0,1.0,81,0.00,,,0.04,,2013-08-07 06:02:00,
2013-08-07 01:11:00,61.0,55.0,29.83,SW,225,0.0,1.0,81,0.00,,,0.04,,2013-08-07 06:11:00,
2013-08-07 01:22:00,60.0,54.0,29.82,SSW,203,0.0,0.0,82,0.00,,,0.04,,2013-08-07 06:22:00,
2013-08-07 01:32:00,60.0,54.0,29.82,SSW,203,0.0,0.0,82,0.00,,,0.04,,2013-08-07 06:32:00,
2013-08-07 01:43:00,60.0,54.0,29.83,SSW,203,0.0,0.0,82,0.00,,,0.04,,2013-08-07 06:43:00,
2013-08-07 01:52:00,59.0,54.0,29.83,SSW,203,0.0,0.0,82,0.00,,,0.04,,2013-08-07 06:52:00,
2013-08-07 02:01:00,59.0,54.0,29.83,SSW,203,0.0,0.0,82,0.00,,,0.04,,2013-08-07 07:01:00,
2013-08-07 02:12:00,59.0,54.0,29.84,SSW,203,0.0,0.0,82,0.00,,,0.04,,2013-08-07 07:12:00,
2013-08-07 02:22:00,59.0,54.0,29.84,SSW,203,0.0,0.0,83,0.00,,,0.04,,2013-08-07 07:22:00,
2013-08-07 02:33:00,59.0,54.0,29.84,SSW,203,0.0,0.0,83,0.00,,,0.04,,2013-08-07 07:33:00,
2013-08-07 02:43:00,58.0,53.0,29.84,SSW,203,0.0,0.0,83,0.00,,,0.04,,2013-08-07 07:43:00,
2013-08-07 02:52:00,58.0,53.0,29.85,SSW,203,0.0,0.0,83,0.00,,,0.04,,2013-08-07 07:52:00,
2013-08-07 03:01:00,58.0,53.0,29.85,SSW,203,0.0,0.0,83,0.00,,,0.04,,2013-08-07 08:01:00,
2013-08-07 03:11:00,58.0,53.0,29.86,South,180,0.0,0.0,83,0.00,,,0.04,,2013-08-07 08:11:00,
2013-08-07 03:22:00,58.0,53.0,29.86,SSE,162,0.0,1.0,83,0.00,,,0.04,,2013-08-07 08:22:00,
2013-08-07 03:32:00,58.0,53.0,29.86,SE,135,0.0,0.0,83,0.00,,,0.04,,2013-08-07 08:32:00,
2013-08-07 03:44:00,57.0,52.0,29.85,SE,135,0.0,0.0,84,0.00,,,0.04,,2013-08-07 08:44:00,
2013-08-07 03:52:00,57.0,52.0,29.85,SE,135,0.0,0.0,84,0.00,,,0.04,,2013-08-07 08:52:00,
2013-08-07 04:02:00,57.0,52.0,29.86,SE,135,0.0,0.0,84,0.00,,,0.04,,2013-08-07 09:02:00,
2013-08-07 04:11:00,57.0,52.0,29.86,SSW,203,0.0,0.0,84,0.00,,,0.04,,2013-08-07 09:11:00,
2013-08-07 04:22:00,57.0,52.0,29.86,NW,315,0.0,0.0,84,0.00,,,0.04,,2013-08-07 09:22:00,
2013-08-07 04:32:00,57.0,52.0,29.87,NW,315,0.0,0.0,84,0.00,,,0.04,,2013-08-07 09:32:00,
2013-08-07 04:43:00,57.0,52.0,29.87,SSE,158,0.0,1.0,84,0.00,,,0.04,,2013-08-07 09:43:00,
2013-08-07 04:54:00,56.0,51.0,29.87,SSE,158,0.0,0.0,83,0.00,,,0.04,,2013-08-07 09:54:00,
2013-08-07 05:01:00,56.0,51.0,29.87,SSE,158,0.0,0.0,83,0.00,,,0.04,,2013-08-07 10:01:00,
2013-08-07 05:11:00,56.0,51.0,29.87,South,180,0.0,0.0,83,0.00,,,0.04,,2013-08-07 10:11:00,
2013-08-07 05:22:00,56.0,51.0,29.87,South,180,0.0,0.0,83,0.00,,,0.04,,2013-08-07 10:22:00,
2013-08-07 05:32:00,56.0,51.0,29.87,SW,225,0.0,0.0,83,0.00,,,0.04,,2013-08-07 10:32:00,
2013-08-07 05:43:00,56.0,51.0,29.87,SW,225,0.0,0.0,83,0.00,,,0.04,,2013-08-07 10:43:00,
2013-08-07 05:52:00,56.0,51.0,29.87,SSW,203,0.0,0.0,83,0.00,,,0.04,,2013-08-07 10:52:00,
2013-08-07 06:01:00,56.0,51.0,29.88,SSW,203,0.0,1.0,84,0.00,,,0.04,,2013-08-07 11:01:00,
2013-08-07 06:11:00,56.0,51.0,29.89,SW,225,0.0,1.0,84,0.00,,,0.04,,2013-08-07 11:11:00,
2013-08-07 06:22:00,56.0,51.0,29.89,SSW,203,0.0,0.0,84,0.00,,,0.04,,2013-08-07 11:22:00,
2013-08-07 06:32:00,55.0,50.0,29.89,SSW,203,0.0,0.0,84,0.00,,,0.04,,2013-08-07 11:32:00,
2013-08-07 06:43:00,55.0,50.0,29.89,SSW,203,0.0,1.0,84,0.00,,,0.04,,2013-08-07 11:43:00,
2013-08-07 06:52:00,55.0,50.0,29.89,West,270,0.0,0.0,84,0.00,,,0.04,,2013-08-07 11:52:00,
2013-08-07 07:02:00,55.0,50.0,29.89,West,270,0.0,0.0,84,0.00,,,0.04,,2013-08-07 12:02:00,
2013-08-07 07:11:00,55.0,50.0,29.89,West,270,0.0,0.0,84,0.00,,,0.04,,2013-08-07 12:11:00,
2013-08-07 07:22:00,55.0,50.0,29.91,SW,225,0.0,0.0,84,0.00,,,0.04,,2013-08-07 12:22:00,
2013-08-07 07:32:00,55.0,50.0,29.91,SW,225,1.0,1.0,84,0.00,,,0.04,,2013-08-07 12:32:00,
2013-08-07 07:43:00,56.0,51.0,29.91,SW,225,1.0,1.0,84,0.00,,,0.04,,2013-08-07 12:43:00,
2013-08-07 07:52:00,56.0,51.0,29.91,West,270,0.0,1.0,84,0.00,,,0.04,,2013-08-07 12:52:00,
2013-08-07 08:02:00,56.0,51.0,29.91,NW,315,0.0,0.0,84,0.00,,,0.04,,2013-08-07 13:02:00,
2013-08-07 08:11:00,56.0,51.0,29.92,WSW,248,1.0,1.0,84,0.00,,,0.04,,2013-08-07 13:11:00,
2013-08-07 08:22:00,56.0,51.0,29.92,SW,225,1.0,1.0,84,0.00,,,0.04,,2013-08-07 13:22:00,
2013-08-07 08:32:00,57.0,53.0,29.92,WSW,248,1.0,1.0,85,0.00,,,0.04,,2013-08-07 13:32:00,
2013-08-07 08:44:00,57.0,52.0,29.92,WSW,248,0.0,1.0,84,0.00,,,0.04,,2013-08-07 13:44:00,
2013-08-07 08:53:00,57.0,52.0,29.92,SSW,203,1.0,1.0,84,0.00,,,0.04,,2013-08-07 13:53:00,
2013-08-07 09:02:00,57.0,52.0,29.92,WSW,248,0.0,0.0,84,0.00,,,0.04,,2013-08-07 14:02:00,
2013-08-07 09:11:00,57.0,52.0,29.92,SW,225,0.0,0.0,84,0.00,,,0.04,,2013-08-07 14:11:00,
2013-08-07 09:22:00,58.0,53.0,29.93,SE,143,0.0,1.0,84,0.00,,,0.04,,2013-08-07 14:22:00,
2013-08-07 09:33:00,58.0,53.0,29.93,WNW,293,0.0,0.0,83,0.00,,,0.04,,2013-08-07 14:33:00,
2013-08-07 09:43:00,58.0,53.0,29.93,SW,225,0.0,2.0,83,0.00,,,0.04,,2013-08-07 14:43:00,
2013-08-07 09:52:00,59.0,54.0,29.94,West,270,0.0,1.0,82,0.00,,,0.04,,2013-08-07 14:52:00,
2013-08-07 10:02:00,59.0,54.0,29.94,West,270,0.0,1.0,82,0.00,,,0.04,,2013-08-07 15:02:00,
2013-08-07 10:12:00,59.0,53.0,29.95,West,270,0.0,1.0,81,0.00,,,0.04,,2013-08-07 15:12:00,
2013-08-07 10:22:00,59.0,53.0,29.95,West,277,0.0,1.0,80,0.00,,,0.03,,2013-08-07 15:22:00,
2013-08-07 10:33:00,60.0,54.0,29.95,WSW,238,0.0,1.0,80,0.00,,,0.03,,2013-08-07 15:33:00,
2013-08-07 10:43:00,60.0,53.0,29.95,NNW,340,1.0,1.0,79,0.00,,,0.03,,2013-08-07 15:43:00,
2013-08-07 10:53:00,61.0,54.0,29.95,NE,45,0.0,1.0,77,0.00,,,0.03,,2013-08-07 15:53:00,
2013-08-07 11:02:00,62.0,54.0,29.96,North,0,1.0,1.0,76,0.00,,,0.03,,2013-08-07 16:02:00,
2013-08-07 11:11:00,62.0,54.0,29.96,North,0,0.0,1.0,74,0.00,,,0.03,,2013-08-07 16:11:00,
2013-08-07 11:22:00,63.0,55.0,29.96,NE,45,1.0,1.0,74,0.00,,,0.03,,2013-08-07 16:22:00,
2013-08-07 11:33:00,63.0,55.0,29.96,NNE,23,1.0,3.0,74,0.00,,,0.03,,2013-08-07 16:33:00,
2013-08-07 11:43:00,63.0,54.0,29.95,ENE,59,1.0,2.0,73,0.00,,,0.03,,2013-08-07 16:43:00,
2013-08-07 11:53:00,64.0,54.0,29.96,SE,139,1.0,2.0,71,0.00,,,0.03,,2013-08-07 16:53:00,
2013-08-07 12:01:00,64.0,54.0,29.96,NE,53,1.0,2.0,70,0.00,,,0.03,,2013-08-07 17:01:00,
2013-08-07 12:11:00,64.0,54.0,29.96,North,0,1.0,2.0,70,0.00,,,0.03,,2013-08-07 17:11:00,
2013-08-07 12:22:00,65.0,55.0,29.96,NE,34,1.0,2.0,70,0.00,,,0.02,,2013-08-07 17:22:00,
2013-08-07 12:33:00,65.0,55.0,29.96,North,10,1.0,2.0,69,0.00,,,0.02,,2013-08-07 17:33:00,
2013-08-07 12:43:00,66.0,56.0,29.97,ENE,61,1.0,2.0,69,0.00,,,0.02,,2013-08-07 17:43:00,
2013-08-07 12:52:00,66.0,55.0,29.97,NW,315,0.0,1.0,68,0.00,,,0.02,,2013-08-07 17:52:00,
2013-08-07 13:02:00,67.0,56.0,29.97,West,272,1.0,2.0,67,0.00,,,0.02,,2013-08-07 18:02:00,
2013-08-07 13:11:00,67.0,55.0,29.96,ENE,68,1.0,1.0,65,0.00,,,0.02,,2013-08-07 18:11:00,
2013-08-07 13:22:00,67.0,54.0,29.97,ESE,113,2.0,3.0,64,0.00,,,0.01,,2013-08-07 18:22:00,
2013-08-07 13:32:00,67.0,54.0,29.97,ENE,69,1.0,3.0,64,0.00,,,0.01,,2013-08-07 18:32:00,
2013-08-07 13:43:00,67.0,54.0,29.97,SSW,205,1.0,1.0,64,0.00,,,0.01,,2013-08-07 18:43:00,
2013-08-07 13:52:00,68.0,55.0,29.96,ENE,68,1.0,1.0,63,0.00,,,0.01,,2013-08-07 18:52:00,
2013-08-07 14:01:00,67.0,54.0,29.97,ENE,70,1.0,1.0,63,0.00,,,0.01,,2013-08-07 19:01:00,
2013-08-07 14:11:00,67.0,54.0,29.97,NE,45,1.0,1.0,63,0.00,,,0.01,,2013-08-07 19:11:00,
2013-08-07 14:22:00,67.0,54.0,29.97,SE,137,1.0,2.0,63,0.00,,,0.01,,2013-08-07 19:22:00,
2013-08-07 14:32:00,67.0,54.0,29.97,ENE,68,1.0,2.0,63,0.00,,,0.01,,2013-08-07 19:32:00,
2013-08-07 14:44:00,67.0,54.0,29.97,NNW,330,1.0,1.0,64,0.00,,,0.01,,2013-08-07 19:44:00,
2013-08-07 14:52:00,68.0,54.0,29.97,ENE,68,1.0,2.0,62,0.00,,,0.01,,2013-08-07 19:52:00,
2013-08-07 15:02:00,68.0,54.0,29.96,East,92,1.0,1.0,62,0.00,,,0.01,,2013-08-07 20:02:00,
2013-08-07 15:11:00,68.0,54.0,29.97,NE,45,0.0,1.0,62,0.00,,,0.01,,2013-08-07 20:11:00,
2013-08-07 15:22:00,67.0,54.0,29.97,East,93,1.0,1.0,64,0.00,,,0.01,,2013-08-07 20:22:00,
2013-08-07 15:32:00,67.0,54.0,29.96,NE,55,1.0,2.0,63,0.00,,,0.01,,2013-08-07 20:32:00,
2013-08-07 15:43:00,68.0,54.0,29.96,ENE,68,1.0,2.0,62,0.00,,,0.01,,2013-08-07 20:43:00,
2013-08-07 15:52:00,68.0,54.0,29.96,ESE,105,0.0,1.0,62,0.00,,,0.01,,2013-08-07 20:52:00,
2013-08-07 16:01:00,67.0,54.0,29.96,NW,304,0.0,1.0,64,0.00,,,0.01,,2013-08-07 21:01:00,
2013-08-07 16:11:00,67.0,54.0,29.96,ESE,113,0.0,0.0,64,0.00,,,0.01,,2013-08-07 21:11:00,
2013-08-07 16:22:00,67.0,54.0,29.96,NE,55,1.0,1.0,63,0.00,,,0.00,,2013-08-07 21:22:00,
2013-08-07 16:32:00,67.0,54.0,29.96,SW,225,0.0,1.0,63,0.00,,,0.00,,2013-08-07 21:32:00,
2013-08-07 16:43:00,67.0,54.0,29.96,SW,230,0.0,0.0,64,0.00,,,0.00,,2013-08-07 21:43:00,
2013-08-07 16:52:00,67.0,54.0,29.96,South,180,0.0,1.0,64,0.00,,,0.00,,2013-08-07 21:52:00,
2013-08-07 17:01:00,67.0,54.0,29.96,NW,315,0.0,0.0,64,0.00,,,0.00,,2013-08-07 22:01:00,
2013-08-07 17:12:00,67.0,54.0,29.96,SW,225,0.0,1.0,64,0.00,,,0.00,,2013-08-07 22:12:00,
2013-08-07 17:22:00,67.0,54.0,29.96,ENE,68,0.0,1.0,63,0.00,,,0.00,,2013-08-07 22:22:00,
2013-08-07 17:32:00,67.0,54.0,29.95,ENE,68,1.0,3.0,63,0.00,,,0.00,,2013-08-07 22:32:00,
2013-08-07 17:43:00,67.0,54.0,29.95,WNW,293,0.0,2.0,63,0.00,,,0.00,,2013-08-07 22:43:00,
2013-08-07 17:52:00,67.0,54.0,29.96,SSW,203,0.0,0.0,64,0.00,,,0.00,,2013-08-07 22:52:00,
2013-08-07 18:01:00,67.0,54.0,29.95,SE,135,1.0,1.0,64,0.00,,,0.00,,2013-08-07 23:01:00,
2013-08-07 18:11:00,67.0,55.0,29.96,SSW,203,0.0,1.0,65,0.00,,,0.00,,2013-08-07 23:11:00,
2013-08-07 18:22:00,67.0,55.0,29.95,SSE,158,0.0,0.0,65,0.00,,,0.00,,2013-08-07 23:22:00,
2013-08-07 18:32:00,67.0,55.0,29.95,NNW,338,0.0,1.0,65,0.00,,,0.00,,2013-08-07 23:32:00,
2013-08-07 18:43:00,67.0,55.0,29.95,NNW,338,0.0,0.0,65,0.00,,,0.00,,2013-08-07 23:43:00,
2013-08-07 18:52:00,67.0,55.0,29.95,NE,45,0.0,0.0,65,0.00,,,0.00,,2013-08-07 23:52:00,
2013-08-07 19:01:00,67.0,55.0,29.95,ESE,113,0.0,1.0,65,0.00,,,0.00,,2013-08-08 00:01:00,
2013-08-07 19:11:00,66.0,54.0,29.95,SW,225,0.0,0.0,65,0.00,,,0.00,,2013-08-08 00:11:00,
2013-08-07 19:22:00,66.0,54.0,29.95,SW,225,0.0,0.0,65,0.00,,,0.00,,2013-08-08 00:22:00,
2013-08-07 19:32:00,66.0,54.0,29.95,SW,225,0.0,0.0,66,0.00,,,0.00,,2013-08-08 00:32:00,
2013-08-07 19:42:00,66.0,54.0,29.95,SSE,150,1.0,1.0,65,0.00,,,0.00,,2013-08-08 00:42:00,
2013-08-07 19:52:00,66.0,54.0,29.95,East,90,0.0,1.0,66,0.00,,,0.00,,2013-08-08 00:52:00,
2013-08-07 20:02:00,66.0,54.0,29.95,East,90,0.0,1.0,66,0.00,,,0.00,,2013-08-08 01:02:00,
2013-08-07 20:11:00,66.0,55.0,29.95,East,90,0.0,1.0,67,0.00,,,0.00,,2013-08-08 01:11:00,
2013-08-07 20:22:00,66.0,55.0,29.95,East,90,0.0,0.0,67,0.00,,,0.00,,2013-08-08 01:22:00,
2013-08-07 20:32:00,65.0,54.0,29.95,East,90,0.0,0.0,67,0.00,,,0.00,,2013-08-08 01:32:00,
2013-08-07 20:43:00,65.0,54.0,29.95,East,90,0.0,0.0,67,0.00,,,0.00,,2013-08-08 01:43:00,
2013-08-07 20:52:00,65.0,54.0,29.95,East,90,0.0,0.0,67,0.00,,,0.00,,2013-08-08 01:52:00,
2013-08-07 21:02:00,65.0,54.0,29.95,East,90,0.0,0.0,67,0.00,,,0.00,,2013-08-08 02:02:00,
2013-08-07 21:11:00,64.0,54.0,29.96,East,90,0.0,0.0,71,0.00,,,0.00,,2013-08-08 02:11:00,
2013-08-07 21:22:00,64.0,55.0,29.97,East,90,0.0,0.0,72,0.00,,,0.00,,2013-08-08 02:22:00,
2013-08-07 21:32:00,64.0,55.0,29.97,ESE,113,0.0,0.0,73,0.00,,,0.00,,2013-08-08 02:32:00,
2013-08-07 21:42:00,64.0,56.0,29.97,ESE,113,0.0,0.0,74,0.00,,,0.00,,2013-08-08 02:42:00,
2013-08-07 21:52:00,63.0,55.0,29.97,ESE,113,0.0,0.0,74,0.00,,,0.00,,2013-08-08 02:52:00,
2013-08-07 22:01:00,63.0,55.0,29.97,ESE,113,0.0,1.0,74,0.00,,,0.00,,2013-08-08 03:01:00,
2013-08-07 22:12:00,63.0,55.0,29.97,ESE,113,0.0,0.0,74,0.00,,,0.00,,2013-08-08 03:12:00,
2013-08-07 22:22:00,63.0,54.0,29.97,SSE,158,0.0,0.0,73,0.00,,,0.00,,2013-08-08 03:22:00,
2013-08-07 22:32:00,62.0,54.0,29.97,ESE,113,0.0,0.0,74,0.00,,,0.00,,2013-08-08 03:32:00,
2013-08-07 22:43:00,62.0,54.0,29.97,ESE,113,0.0,0.0,75,0.00,,,0.00,,2013-08-08 03:43:00,
2013-08-07 22:52:00,62.0,54.0,29.97,ESE,113,0.0,0.0,75,0.00,,,0.00,,2013-08-08 03:52:00,
2013-08-07 23:01:00,61.0,53.0,29.97,ESE,113,0.0,0.0,76,0.00,,,0.00,,2013-08-08 04:01:00,
2013-08-07 23:11:00,61.0,53.0,29.97,ESE,113,0.0,0.0,76,0.00,,,0.00,,2013-08-08 04:11:00,
2013-08-07 23:22:00,61.0,53.0,29.97,ESE,113,0.0,0.0,76,0.00,,,0.00,,2013-08-08 04:22:00,
2013-08-07 23:33:00,60.0,53.0,29.97,ESE,113,0.0,0.0,77,0.00,,,0.00,,2013-08-08 04:33:00,
2013-08-07 23:43:00,60.0,53.0,29.97,ESE,113,0.0,0.0,77,0.00,,,0.00,,2013-08-08 04:43:00,
2013-08-07 23:53:00,60.0,53.0,29.97,ESE,113,0.0,0.0,77,0.00,,,0.00,,2013-08-08 04:53:00,